Location: ????????
(60.4333°N, 46.4710°E)
Time: 19:39:37
(UTC+00:00)

USA 281 - Pass Details

Date: 25 November 2020
Orbit: 1074 x 1084 km, 106.0° (Epoch: 08 January)

Event Time Altitude Azimuth Distance (km) Brightness Sun altitude
Rises 13:34:13 0° 123° (ESE) 3,880 5.8 -10.2°
Reaches altitude 10° 13:36:46 10° 119° (ESE) 2,925 5.2 -10.5°
Maximum altitude 13:43:10 58° 43° (NE) 1,247 3.3 -11.2°
Drops below altitude 10° 13:49:36 10° 327° (NNW) 2,930 5.7 -12.0°
Sets 13:52:09 0° 323° (NW) 3,887 6.3 -12.3°
